Weather Service Report


723 
ASUS44 KJAN 212010
RWRMS 

MISSISSIPPI HOURLY WEATHER ROUNDUP
NATIONAL WEATHER SERVICE JACKSON MS
300 PM CDT THU AUG 21 2014

NOTE: "FAIR: INDICATES FEW OR NO CLOUDS BELOW 12,000 FEET WITH NO
SIGNIFICANT WEATHER AND/OR OBSTRUCTIONS TO VISIBILITY.

MSZ001>002-007>008-010>013-018>021-025>028-034>036-212100-
NORTHWEST MISSISSIPPI
  
CITY           SKY/WX    TMP DP  RH WIND       PRES   REMARKS
CLARKSDALE     FAIR      91  77  62 CALM      30.08F HX 105           
CLEVELAND      FAIR      92  76  59 S8        30.07F HX 105           
GREENWOOD      SUNNY     93  72  50 SW7       30.08F HX 101           
GREENVILLE     SUNNY     94  72  48 SW9       30.07F HX 102           
GRENADA        FAIR      91  72  52 CALM      30.09F HX  98           
OLIVE BRANCH   PTSUNNY   91  75  59 S10       30.08F HX 102           
OXFORD         PTSUNNY   90  72  55 S3        30.12F HX  96           
TUNICA         CLEAR     93  73  52 S9        30.08F HX 102           
$$

MSZ003>006-009-014>017-022>024-029>033-037>039-212100-
NORTHEAST MISSISSIPPI
  
CITY           SKY/WX    TMP DP  RH WIND       PRES   REMARKS
BELMONT        FAIR      90  75  60 SW5       30.11F HX 100           
COLUMBUS AFB   SUNNY     94  70  45 NW7       30.09F HX 100           
CORINTH        FAIR      91  72  52 SW7       30.08F HX  98           
GOLDN TRIANGLE PTSUNNY   97  72  44 N7        30.10F HX 105           
STARKVILLE     FAIR      95  68  41 W7        30.09F HX  99           
TUPELO         MOSUNNY   95  71  45 VRB6      30.09F HX 102           
$$

MSZ040-058-212100-
CENTRAL MISSISSIPPI
  
CITY           SKY/WX    TMP DP  RH WIND       PRES   REMARKS
JACKSON INTL   PTSUNNY   94  70  45 VRB3      30.08F HX 100           
JACKSON HAWKNS MOSUNNY   93  72  50 CALM      30.09F HX 101           
MERIDIAN KEY   MOSUNNY   93  67  42 VRB3      30.10F HX  96           
MERIDIAN NAS   MOSUNNY   94  69  44 CALM      30.10F HX  99           
RAYMOND        MOCLDY    91  86  84 CALM      30.09F HX 122           
VICKSBURG      MOSUNNY   92  74  55 VRB3      30.07F HX 101           
$$

MSZ059>079-212100-
SOUTH MISSISSIPPI
  
CITY           SKY/WX    TMP DP  RH WIND       PRES   REMARKS
BROOKHAVEN     FAIR      90  73  58 CALM      30.11F HX  98           
HATTIESBURG    CLOUDY    94  70  45 E6        30.09F HX 100           
MCCOMB         TSTM      82  73  74 N7G17     30.11S                  
NATCHEZ        MOSUNNY   93  73  52 S6        30.10S HX 102           
PINE BELT      MOSUNNY   95  68  41 SW3       30.11F HX  99           
$$

MSZ080>082-212100-
COASTAL MISSISSIPPI
  
CITY           SKY/WX    TMP DP  RH WIND       PRES   REMARKS
BAY ST LOUIS   MOSUNNY  N/A N/A N/A CALM      30.09F                  
BILOXI         MOSUNNY   92  73  53 S9        30.09F HX 101           
PASCAGOULA     MOSUNNY   92  74  55 S9        30.09F HX 101           
GULFPORT       MOSUNNY   91  72  53 S8        30.08F HX  98           
$$

Return to Home page


Western Regional Climate Center, wrcc@dri.edu